N3368K KMYR-KILN

Flight info

Callsign N3368K
Flight time 2h 5m
Altitude 26000
Route FILLI BUCKL JEPEX Q93 OCASE/N0277F250
Aircraft SF50/L-SDGRWY/L

Departure

Time 2026-05-08 17:12
Airport Myrtle Beach International Airport (KMYR)

Arrival

Time 2026-05-08 19:17
Airport Wilmington Airpark (KILN)
Time Latitude Longitude Altitude Speed Heading
2026-05-08 16:58 33.67376 -78.93243 26 ft 0 kts 165°
2026-05-08 17:07 33.67359 -78.93231 25 ft 8 kts 140°
2026-05-08 17:07 33.67307 -78.93155 26 ft 14 kts 122°
2026-05-08 17:07 33.67255 -78.93054 26 ft 14 kts 131°
2026-05-08 17:07 33.67179 -78.92999 27 ft 13 kts 166°
2026-05-08 17:08 33.67088 -78.92975 25 ft 15 kts 169°
2026-05-08 17:08 33.66984 -78.92948 25 ft 16 kts 166°
2026-05-08 17:08 33.66866 -78.92920 25 ft 18 kts 168°
2026-05-08 17:08 33.66737 -78.92888 27 ft 20 kts 167°
2026-05-08 17:09 33.66665 -78.92790 27 ft 18 kts 92°
2026-05-08 17:09 33.66686 -78.92640 28 ft 16 kts 78°
2026-05-08 17:09 33.66692 -78.92606 26 ft 0 kts 75°
2026-05-08 17:10 33.66693 -78.92603 26 ft 3 kts 74°
2026-05-08 17:10 33.66707 -78.92546 26 ft 8 kts 58°
2026-05-08 17:10 33.66737 -78.92527 27 ft 0 kts 352°
2026-05-08 17:11 33.66864 -78.92554 28 ft 49 kts 348°
2026-05-08 17:11 33.67405 -78.92676 39 ft 105 kts 352°
2026-05-08 17:11 33.68192 -78.92921 300 ft 130 kts 348°
2026-05-08 17:11 33.69163 -78.93228 592 ft 157 kts 350°
2026-05-08 17:12 33.70315 -78.93520 879 ft 180 kts 351°
2026-05-08 17:12 33.71529 -78.93836 1508 ft 179 kts 346°
2026-05-08 17:12 33.72501 -78.94800 2036 ft 189 kts 297°
2026-05-08 17:12 33.72825 -78.96332 2599 ft 190 kts 282°
2026-05-08 17:13 33.73079 -78.97882 3159 ft 190 kts 282°
2026-05-08 17:13 33.73339 -78.99436 3710 ft 189 kts 282°
2026-05-08 17:13 33.73590 -79.00986 4264 ft 188 kts 281°
2026-05-08 17:13 33.73837 -79.02520 4817 ft 186 kts 282°
2026-05-08 17:14 33.74079 -79.04025 5340 ft 185 kts 281°
2026-05-08 17:14 33.74321 -79.05545 5855 ft 183 kts 281°
2026-05-08 17:14 33.74562 -79.07049 6353 ft 183 kts 281°
2026-05-08 17:14 33.74798 -79.08525 6853 ft 180 kts 280°
2026-05-08 17:15 33.75035 -79.10008 7304 ft 179 kts 281°
2026-05-08 17:15 33.75271 -79.11476 7758 ft 178 kts 280°
2026-05-08 17:15 33.75505 -79.12945 8203 ft 178 kts 280°
2026-05-08 17:15 33.75735 -79.14382 8663 ft 176 kts 280°
2026-05-08 17:16 33.75966 -79.15831 9104 ft 176 kts 280°
2026-05-08 17:16 33.76198 -79.17281 9554 ft 176 kts 280°
2026-05-08 17:16 33.76427 -79.18720 9996 ft 175 kts 280°
2026-05-08 17:16 33.76652 -79.20140 10373 ft 175 kts 280°
2026-05-08 17:17 33.76882 -79.21585 10750 ft 176 kts 280°
2026-05-08 17:17 33.77111 -79.23030 11126 ft 176 kts 280°
2026-05-08 17:17 33.77339 -79.24468 11506 ft 176 kts 280°
2026-05-08 17:17 33.77570 -79.25922 11881 ft 177 kts 280°
2026-05-08 17:18 33.77803 -79.27383 12245 ft 178 kts 280°
2026-05-08 17:18 33.78032 -79.28835 12601 ft 178 kts 280°
2026-05-08 17:18 33.78267 -79.30311 12950 ft 179 kts 280°
2026-05-08 17:18 33.78501 -79.31790 13309 ft 180 kts 280°
2026-05-08 17:19 33.78732 -79.33248 13663 ft 180 kts 280°
2026-05-08 17:19 33.78966 -79.34736 13995 ft 181 kts 279°
2026-05-08 17:19 33.79201 -79.36226 14295 ft 181 kts 280°
2026-05-08 17:19 33.79435 -79.37722 14597 ft 181 kts 280°
2026-05-08 17:20 33.79666 -79.39189 14907 ft 180 kts 279°
2026-05-08 17:20 33.79900 -79.40669 15216 ft 180 kts 279°
2026-05-08 17:20 33.80133 -79.42153 15513 ft 180 kts 279°
2026-05-08 17:20 33.80365 -79.43621 15782 ft 181 kts 279°
2026-05-08 17:21 33.80598 -79.45111 16071 ft 181 kts 279°
2026-05-08 17:21 33.80832 -79.46594 16357 ft 180 kts 279°
2026-05-08 17:21 33.81064 -79.48076 16634 ft 180 kts 279°
2026-05-08 17:21 33.81295 -79.49542 16910 ft 180 kts 279°
2026-05-08 17:22 33.81526 -79.51028 17174 ft 180 kts 279°
2026-05-08 17:22 33.81759 -79.52512 17432 ft 180 kts 279°
2026-05-08 17:22 33.81990 -79.54002 17685 ft 180 kts 279°
2026-05-08 17:22 33.82221 -79.55482 17928 ft 180 kts 279°
2026-05-08 17:23 33.82450 -79.56951 18159 ft 180 kts 279°
2026-05-08 17:23 33.82683 -79.58440 18387 ft 180 kts 278°
2026-05-08 17:23 33.82913 -79.59928 18579 ft 180 kts 278°
2026-05-08 17:23 33.83145 -79.61406 18785 ft 179 kts 278°
2026-05-08 17:24 33.83375 -79.62886 19001 ft 178 kts 278°
2026-05-08 17:24 33.83599 -79.64327 19214 ft 177 kts 278°
2026-05-08 17:24 33.83825 -79.65780 19432 ft 175 kts 278°
2026-05-08 17:24 33.84049 -79.67222 19651 ft 174 kts 278°
2026-05-08 17:25 33.84269 -79.68654 19873 ft 173 kts 278°
2026-05-08 17:25 33.84487 -79.70057 20091 ft 172 kts 278°
2026-05-08 17:25 33.84704 -79.71468 20311 ft 170 kts 278°
2026-05-08 17:25 33.84921 -79.72871 20532 ft 169 kts 278°
2026-05-08 17:26 33.85133 -79.74247 20751 ft 168 kts 278°
2026-05-08 17:26 33.85428 -79.75611 20970 ft 168 kts 284°
2026-05-08 17:26 33.85872 -79.76919 21192 ft 170 kts 289°
2026-05-08 17:26 33.86462 -79.78157 21416 ft 172 kts 294°
2026-05-08 17:27 33.87174 -79.79326 21643 ft 172 kts 296°
2026-05-08 17:27 33.87872 -79.80477 21868 ft 171 kts 295°
2026-05-08 17:27 33.88571 -79.81627 22094 ft 170 kts 295°
2026-05-08 17:27 33.89272 -79.82780 22322 ft 169 kts 295°
2026-05-08 17:28 33.89957 -79.83905 22549 ft 168 kts 295°
2026-05-08 17:28 33.90646 -79.85039 22777 ft 167 kts 295°
2026-05-08 17:28 33.91330 -79.86165 23008 ft 166 kts 295°
2026-05-08 17:28 33.92011 -79.87285 23238 ft 164 kts 294°
2026-05-08 17:29 33.92683 -79.88390 23464 ft 163 kts 294°
2026-05-08 17:29 33.93353 -79.89492 23684 ft 162 kts 294°
2026-05-08 17:29 33.94011 -79.90577 23866 ft 162 kts 294°
2026-05-08 17:29 33.94676 -79.91671 24043 ft 161 kts 294°
2026-05-08 17:30 33.95336 -79.92758 24223 ft 161 kts 294°
2026-05-08 17:30 33.95997 -79.93844 24405 ft 160 kts 294°
2026-05-08 17:30 33.96647 -79.94915 24585 ft 159 kts 294°
2026-05-08 17:30 33.97302 -79.95992 24762 ft 159 kts 294°
2026-05-08 17:31 33.97955 -79.97071 24939 ft 159 kts 294°
2026-05-08 17:31 33.98605 -79.98142 25120 ft 158 kts 293°
2026-05-08 17:31 33.99244 -79.99197 25301 ft 158 kts 294°
2026-05-08 17:31 33.99884 -80.00253 25480 ft 157 kts 293°
2026-05-08 17:32 34.00529 -80.01319 25663 ft 157 kts 293°
2026-05-08 17:32 34.01169 -80.02378 25846 ft 156 kts 293°
2026-05-08 17:32 34.01803 -80.03423 26024 ft 156 kts 293°
2026-05-08 17:32 34.02448 -80.04494 26103 ft 160 kts 293°
2026-05-08 17:33 34.03121 -80.05611 26109 ft 167 kts 294°
2026-05-08 17:33 34.03814 -80.06752 26117 ft 172 kts 294°
2026-05-08 17:33 34.04528 -80.07930 26119 ft 177 kts 294°
2026-05-08 17:33 34.05265 -80.09145 26117 ft 179 kts 294°
2026-05-08 17:34 34.06006 -80.10368 26120 ft 182 kts 294°
2026-05-08 17:34 34.06751 -80.11602 26121 ft 185 kts 295°
2026-05-08 17:34 34.07519 -80.12870 26122 ft 189 kts 295°
2026-05-08 17:34 34.08302 -80.14168 26121 ft 193 kts 295°
2026-05-08 17:35 34.09092 -80.15476 26119 ft 196 kts 295°
2026-05-08 17:35 34.09901 -80.16815 26127 ft 198 kts 295°
2026-05-08 17:35 34.10444 -80.17716 26120 ft 200 kts 295°
2026-05-08 17:35 34.11545 -80.19542 26122 ft 204 kts 295°
2026-05-08 17:36 34.12113 -80.20485 26121 ft 206 kts 295°
2026-05-08 17:36 34.12963 -80.21897 26121 ft 210 kts 295°
2026-05-08 17:36 34.13819 -80.23315 26123 ft 212 kts 295°
2026-05-08 17:36 34.14692 -80.24768 26125 ft 214 kts 295°
2026-05-08 17:37 34.15575 -80.26232 26124 ft 216 kts 295°
2026-05-08 17:37 34.16464 -80.27709 26124 ft 217 kts 296°
2026-05-08 17:37 34.17349 -80.29179 26125 ft 218 kts 296°
2026-05-08 17:37 34.18242 -80.30664 26124 ft 219 kts 296°
2026-05-08 17:38 34.19141 -80.32162 26121 ft 220 kts 296°
2026-05-08 17:38 34.20047 -80.33669 26121 ft 221 kts 296°
2026-05-08 17:38 34.20943 -80.35159 26116 ft 222 kts 296°
2026-05-08 17:38 34.21851 -80.36674 26117 ft 222 kts 296°
2026-05-08 17:39 34.22761 -80.38192 26118 ft 222 kts 296°
2026-05-08 17:39 34.23669 -80.39708 26118 ft 223 kts 296°
2026-05-08 17:39 34.24569 -80.41209 26118 ft 223 kts 296°
2026-05-08 17:39 34.25482 -80.42733 26118 ft 223 kts 296°
2026-05-08 17:40 34.26395 -80.44259 26119 ft 224 kts 296°
2026-05-08 17:40 34.27308 -80.45784 26119 ft 224 kts 296°
2026-05-08 17:40 34.28211 -80.47294 26119 ft 224 kts 296°
2026-05-08 17:40 34.29132 -80.48833 26116 ft 224 kts 296°
2026-05-08 17:41 34.30052 -80.50373 26118 ft 225 kts 296°
2026-05-08 17:41 34.30956 -80.51885 26117 ft 225 kts 296°
2026-05-08 17:41 34.31878 -80.53426 26117 ft 225 kts 296°
2026-05-08 17:41 34.32797 -80.54966 26117 ft 226 kts 296°
2026-05-08 17:42 34.33723 -80.56518 26115 ft 226 kts 296°
2026-05-08 17:42 34.34634 -80.58047 26115 ft 226 kts 296°
2026-05-08 17:42 34.35557 -80.59595 26116 ft 226 kts 296°
2026-05-08 17:42 34.36485 -80.61152 26115 ft 226 kts 296°
2026-05-08 17:43 34.37395 -80.62680 26110 ft 226 kts 296°
2026-05-08 17:43 34.38318 -80.64230 26112 ft 226 kts 295°
2026-05-08 17:43 34.39237 -80.65773 26111 ft 224 kts 295°
2026-05-08 17:43 34.40141 -80.67295 26110 ft 224 kts 295°
2026-05-08 17:44 34.41056 -80.68831 26112 ft 224 kts 295°
2026-05-08 17:44 34.41973 -80.70371 26111 ft 224 kts 295°
2026-05-08 17:44 34.42875 -80.71895 26111 ft 224 kts 295°
2026-05-08 17:44 34.43794 -80.73438 26110 ft 224 kts 295°
2026-05-08 17:45 34.44706 -80.74973 26109 ft 224 kts 295°
2026-05-08 17:45 34.45614 -80.76504 26115 ft 224 kts 295°
2026-05-08 17:45 34.46523 -80.78038 26113 ft 224 kts 295°
2026-05-08 17:45 34.47434 -80.79574 26112 ft 223 kts 295°
2026-05-08 17:46 34.48342 -80.81109 26116 ft 223 kts 295°
2026-05-08 17:46 34.49237 -80.82618 26110 ft 224 kts 295°
2026-05-08 17:46 34.50147 -80.84157 26111 ft 223 kts 295°
2026-05-08 17:46 34.51055 -80.85693 26111 ft 223 kts 295°
2026-05-08 17:47 34.51961 -80.87222 26109 ft 224 kts 295°
2026-05-08 17:47 34.52839 -80.88757 26107 ft 221 kts 293°
2026-05-08 17:47 34.53665 -80.90335 26108 ft 221 kts 293°
2026-05-08 17:47 34.54222 -80.91378 26111 ft 222 kts 293°
2026-05-08 17:48 34.55336 -80.93466 26110 ft 222 kts 293°
2026-05-08 17:48 34.56172 -80.95042 26109 ft 222 kts 293°
2026-05-08 17:48 34.57008 -80.96618 26109 ft 222 kts 293°
2026-05-08 17:48 34.57843 -80.98193 26109 ft 222 kts 293°
2026-05-08 17:49 34.58679 -80.99768 26110 ft 222 kts 293°
2026-05-08 17:49 34.59514 -81.01346 26110 ft 222 kts 293°
2026-05-08 17:49 34.60340 -81.02905 26112 ft 222 kts 293°
2026-05-08 17:49 34.61177 -81.04486 26111 ft 222 kts 293°
2026-05-08 17:50 34.62012 -81.06064 26107 ft 222 kts 293°
2026-05-08 17:50 34.62835 -81.07623 26107 ft 222 kts 293°
2026-05-08 17:50 34.63668 -81.09197 26107 ft 222 kts 293°
2026-05-08 17:50 34.64505 -81.10783 26107 ft 222 kts 293°
2026-05-08 17:51 34.65340 -81.12358 26107 ft 222 kts 293°
2026-05-08 17:51 34.66177 -81.13944 26107 ft 222 kts 293°
2026-05-08 17:51 34.66998 -81.15502 26106 ft 222 kts 293°
2026-05-08 17:51 34.67838 -81.17088 26108 ft 221 kts 294°
2026-05-08 17:52 34.68663 -81.18653 26104 ft 220 kts 294°
2026-05-08 17:52 34.69486 -81.20217 26100 ft 220 kts 294°
2026-05-08 17:52 34.71135 -81.23346 26107 ft 220 kts 293°
2026-05-08 17:53 34.71953 -81.24904 26108 ft 220 kts 293°
2026-05-08 17:53 34.72781 -81.26478 26104 ft 220 kts 294°
2026-05-08 17:53 34.73608 -81.28049 26107 ft 220 kts 293°
2026-05-08 17:53 34.74437 -81.29627 26109 ft 220 kts 294°
2026-05-08 17:54 34.75254 -81.31183 26108 ft 220 kts 294°
2026-05-08 17:54 34.76083 -81.32759 26109 ft 220 kts 294°
2026-05-08 17:54 34.76902 -81.34316 26109 ft 220 kts 294°
2026-05-08 17:54 34.77730 -81.35896 26109 ft 220 kts 293°
2026-05-08 17:55 34.78554 -81.37468 26108 ft 220 kts 294°
2026-05-08 17:55 34.79368 -81.39019 26109 ft 220 kts 293°
2026-05-08 17:55 34.80193 -81.40593 26108 ft 220 kts 293°
2026-05-08 17:55 34.81020 -81.42170 26107 ft 219 kts 293°
2026-05-08 17:56 34.81840 -81.43739 26109 ft 219 kts 293°
2026-05-08 17:56 34.82653 -81.45292 26108 ft 219 kts 293°
2026-05-08 17:56 34.83476 -81.46868 26108 ft 219 kts 293°
2026-05-08 17:56 34.84287 -81.48420 26108 ft 219 kts 293°
2026-05-08 17:57 34.85106 -81.49986 26106 ft 218 kts 293°
2026-05-08 17:57 34.85915 -81.51535 26108 ft 218 kts 293°
2026-05-08 17:57 34.86732 -81.53099 26108 ft 219 kts 293°
2026-05-08 17:57 34.87551 -81.54667 26106 ft 218 kts 293°
2026-05-08 17:58 34.88368 -81.56231 26110 ft 219 kts 293°
2026-05-08 17:58 34.89184 -81.57798 26110 ft 219 kts 293°
2026-05-08 17:58 34.89992 -81.59347 26110 ft 219 kts 293°
2026-05-08 17:58 34.90808 -81.60910 26109 ft 219 kts 293°
2026-05-08 17:59 34.91625 -81.62478 26108 ft 219 kts 293°
2026-05-08 17:59 34.92440 -81.64048 26108 ft 219 kts 293°
2026-05-08 17:59 34.93253 -81.65609 26110 ft 219 kts 293°
2026-05-08 17:59 34.94071 -81.67180 26104 ft 219 kts 293°
2026-05-08 18:00 34.94947 -81.68693 26102 ft 223 kts 297°
2026-05-08 18:00 34.97159 -81.71447 26103 ft 234 kts 307°
2026-05-08 18:00 34.98492 -81.72639 26109 ft 241 kts 311°
2026-05-08 18:01 34.99991 -81.73663 26118 ft 253 kts 318°
2026-05-08 18:01 35.01650 -81.74530 26087 ft 263 kts 324°
2026-05-08 18:01 35.03413 -81.75140 26089 ft 265 kts 329°
2026-05-08 18:01 35.05226 -81.75566 26089 ft 269 kts 331°
2026-05-08 18:02 35.07060 -81.76005 26086 ft 268 kts 331°
2026-05-08 18:02 35.08275 -81.76295 26083 ft 268 kts 331°
2026-05-08 18:02 35.10727 -81.76873 26084 ft 268 kts 331°
2026-05-08 18:02 35.12563 -81.77305 26085 ft 268 kts 331°
2026-05-08 18:03 35.14393 -81.77740 26083 ft 268 kts 331°
2026-05-08 18:03 35.16229 -81.78174 26088 ft 269 kts 331°
2026-05-08 18:03 35.18068 -81.78607 26085 ft 269 kts 331°
2026-05-08 18:03 35.19905 -81.79043 26089 ft 269 kts 331°
2026-05-08 18:04 35.21743 -81.79478 26087 ft 269 kts 331°
2026-05-08 18:04 35.23586 -81.79915 26101 ft 270 kts 331°
2026-05-08 18:04 35.25414 -81.80348 26101 ft 271 kts 332°
2026-05-08 18:04 35.27269 -81.80785 26100 ft 271 kts 332°
2026-05-08 18:05 35.29120 -81.81223 26106 ft 271 kts 332°
2026-05-08 18:05 35.30969 -81.81661 26108 ft 271 kts 332°
2026-05-08 18:05 35.32816 -81.82101 26113 ft 271 kts 332°
2026-05-08 18:05 35.34671 -81.82540 26115 ft 271 kts 332°
2026-05-08 18:06 35.36527 -81.82982 26115 ft 272 kts 332°
2026-05-08 18:06 35.38390 -81.83424 26117 ft 272 kts 332°
2026-05-08 18:06 35.40247 -81.83868 26118 ft 273 kts 332°
2026-05-08 18:06 35.42122 -81.84315 26121 ft 275 kts 332°
2026-05-08 18:07 35.44003 -81.84770 26117 ft 275 kts 332°
2026-05-08 18:07 35.45862 -81.85212 26116 ft 274 kts 332°
2026-05-08 18:07 35.47732 -81.85648 26113 ft 271 kts 332°
2026-05-08 18:07 35.49591 -81.86087 26113 ft 273 kts 332°
2026-05-08 18:08 35.51362 -81.86512 26113 ft 272 kts 332°
2026-05-08 18:08 35.53220 -81.86961 26109 ft 273 kts 333°
2026-05-08 18:08 35.55086 -81.87402 26106 ft 273 kts 333°
2026-05-08 18:08 35.56950 -81.87846 26104 ft 272 kts 332°
2026-05-08 18:09 35.58819 -81.88295 26102 ft 272 kts 332°
2026-05-08 18:09 35.60659 -81.88733 26099 ft 273 kts 332°
2026-05-08 18:09 35.62523 -81.89176 26096 ft 273 kts 332°
2026-05-08 18:09 35.64388 -81.89623 26093 ft 273 kts 332°
2026-05-08 18:10 35.66234 -81.90065 26089 ft 273 kts 332°
2026-05-08 18:10 35.68112 -81.90516 26086 ft 274 kts 332°
2026-05-08 18:10 35.69989 -81.90964 26083 ft 274 kts 332°
2026-05-08 18:10 35.71829 -81.91405 26087 ft 274 kts 332°
2026-05-08 18:11 35.73707 -81.91875 26087 ft 270 kts 329°
2026-05-08 18:11 35.75454 -81.92572 26086 ft 259 kts 322°
2026-05-08 18:11 35.77063 -81.93492 26086 ft 252 kts 317°
2026-05-08 18:11 35.78633 -81.94481 26086 ft 253 kts 318°
2026-05-08 18:12 35.80215 -81.95444 26083 ft 253 kts 318°
2026-05-08 18:12 35.81771 -81.96399 26083 ft 252 kts 318°
2026-05-08 18:12 35.83336 -81.97371 26082 ft 252 kts 318°
2026-05-08 18:12 35.84908 -81.98347 26081 ft 253 kts 318°
2026-05-08 18:13 35.86491 -81.99328 26062 ft 253 kts 318°
2026-05-08 18:13 35.88067 -82.00294 26067 ft 252 kts 318°
2026-05-08 18:13 35.89629 -82.01265 26069 ft 252 kts 317°
2026-05-08 18:13 35.91205 -82.02251 26070 ft 253 kts 318°
2026-05-08 18:14 35.92761 -82.03217 26067 ft 254 kts 318°
2026-05-08 18:14 35.94348 -82.04200 26067 ft 254 kts 318°
2026-05-08 18:14 35.95923 -82.05179 26070 ft 254 kts 318°
2026-05-08 18:14 35.97511 -82.06163 26071 ft 255 kts 318°
2026-05-08 18:15 35.99083 -82.07145 26086 ft 256 kts 318°
2026-05-08 18:15 36.00691 -82.08142 26058 ft 259 kts 319°
2026-05-08 18:15 36.02297 -82.09133 26057 ft 255 kts 318°
2026-05-08 18:15 36.03869 -82.10115 26062 ft 255 kts 318°
2026-05-08 18:16 36.05464 -82.11110 26063 ft 257 kts 318°
2026-05-08 18:16 36.07071 -82.12106 26060 ft 257 kts 318°
2026-05-08 18:16 36.08649 -82.13098 26058 ft 257 kts 318°
2026-05-08 18:16 36.10250 -82.14099 26062 ft 257 kts 318°
2026-05-08 18:17 36.11858 -82.15102 26060 ft 258 kts 318°
2026-05-08 18:17 36.13462 -82.16101 26057 ft 257 kts 318°
2026-05-08 18:17 36.15038 -82.17079 26059 ft 255 kts 318°
2026-05-08 18:17 36.16622 -82.18070 26053 ft 253 kts 318°
2026-05-08 18:18 36.18189 -82.19053 26052 ft 252 kts 318°
2026-05-08 18:18 36.19766 -82.20032 26060 ft 253 kts 318°
2026-05-08 18:18 36.21338 -82.21026 26053 ft 253 kts 317°
2026-05-08 18:18 36.22910 -82.22015 26056 ft 254 kts 318°
2026-05-08 18:19 36.24472 -82.22983 26061 ft 254 kts 318°
2026-05-08 18:19 36.26056 -82.23975 26067 ft 255 kts 319°
2026-05-08 18:19 36.27112 -82.24641 26069 ft 256 kts 318°
2026-05-08 18:19 36.29241 -82.25975 26066 ft 256 kts 318°
2026-05-08 18:20 36.30812 -82.26958 26066 ft 255 kts 318°
2026-05-08 18:20 36.32397 -82.27954 26066 ft 255 kts 318°
2026-05-08 18:20 36.33447 -82.28613 26069 ft 255 kts 318°
2026-05-08 18:20 36.35030 -82.29608 26067 ft 255 kts 318°
2026-05-08 18:21 36.36618 -82.30610 26070 ft 255 kts 318°
2026-05-08 18:21 36.38192 -82.31597 26076 ft 256 kts 318°
2026-05-08 18:21 36.39789 -82.32598 26070 ft 256 kts 318°
2026-05-08 18:21 36.41386 -82.33602 26077 ft 257 kts 318°
2026-05-08 18:22 36.42978 -82.34606 26072 ft 257 kts 318°
2026-05-08 18:22 36.44560 -82.35601 26069 ft 257 kts 319°
2026-05-08 18:22 36.46159 -82.36607 26073 ft 257 kts 318°
2026-05-08 18:22 36.47759 -82.37616 26076 ft 257 kts 318°
2026-05-08 18:23 36.49360 -82.38626 26078 ft 256 kts 318°
2026-05-08 18:23 36.50927 -82.39623 26101 ft 256 kts 318°
2026-05-08 18:23 36.52528 -82.40635 26076 ft 259 kts 319°
2026-05-08 18:23 36.54145 -82.41651 26079 ft 259 kts 319°
2026-05-08 18:24 36.55758 -82.42669 26077 ft 260 kts 319°
2026-05-08 18:24 36.57352 -82.43677 26065 ft 260 kts 319°
2026-05-08 18:24 36.58968 -82.44697 26064 ft 259 kts 319°
2026-05-08 18:24 36.60575 -82.45712 26065 ft 257 kts 319°
2026-05-08 18:25 36.62170 -82.46723 26064 ft 257 kts 319°
2026-05-08 18:25 36.63743 -82.47722 26063 ft 256 kts 319°
2026-05-08 18:25 36.65341 -82.48733 26062 ft 257 kts 319°
2026-05-08 18:25 36.66937 -82.49746 26065 ft 258 kts 319°
2026-05-08 18:26 36.68543 -82.50764 26069 ft 259 kts 319°
2026-05-08 18:26 36.70161 -82.51788 26073 ft 259 kts 319°
2026-05-08 18:26 36.71774 -82.52810 26070 ft 259 kts 319°
2026-05-08 18:26 36.73352 -82.53815 26074 ft 258 kts 319°
2026-05-08 18:27 36.74958 -82.54836 26079 ft 258 kts 319°
2026-05-08 18:27 36.76019 -82.55508 26106 ft 258 kts 319°
2026-05-08 18:27 36.78155 -82.56876 26077 ft 261 kts 319°
2026-05-08 18:27 36.79790 -82.57912 26079 ft 261 kts 319°
2026-05-08 18:28 36.81334 -82.59019 26081 ft 254 kts 313°
2026-05-08 18:28 36.82739 -82.60337 26082 ft 250 kts 310°
2026-05-08 18:28 36.84115 -82.61673 26079 ft 250 kts 310°
2026-05-08 18:28 36.85478 -82.62980 26083 ft 251 kts 310°
2026-05-08 18:29 36.86860 -82.64319 26078 ft 250 kts 310°
2026-05-08 18:29 36.88243 -82.65662 26079 ft 251 kts 310°
2026-05-08 18:29 36.89612 -82.66988 26083 ft 252 kts 310°
2026-05-08 18:29 36.90996 -82.68329 26082 ft 251 kts 311°
2026-05-08 18:30 36.92373 -82.69659 26081 ft 249 kts 310°
2026-05-08 18:30 36.93739 -82.70986 26078 ft 248 kts 310°
2026-05-08 18:30 36.95109 -82.72319 26078 ft 249 kts 310°
2026-05-08 18:30 36.96467 -82.73640 26036 ft 248 kts 310°
2026-05-08 18:31 36.97819 -82.74960 26083 ft 247 kts 310°
2026-05-08 18:31 36.99184 -82.76282 26080 ft 248 kts 310°
2026-05-08 18:31 37.00536 -82.77595 26073 ft 246 kts 310°
2026-05-08 18:31 37.01892 -82.78907 26100 ft 247 kts 310°
2026-05-08 18:32 37.03251 -82.80223 26075 ft 251 kts 311°
2026-05-08 18:32 37.04635 -82.81576 26076 ft 252 kts 310°
2026-05-08 18:32 37.06019 -82.82939 26064 ft 252 kts 310°
2026-05-08 18:32 37.07402 -82.84283 26070 ft 255 kts 311°
2026-05-08 18:33 37.08773 -82.85668 26006 ft 239 kts 304°
2026-05-08 18:33 37.09070 -82.87437 25852 ft 209 kts 266°
2026-05-08 18:33 37.09226 -82.89235 25991 ft 211 kts 284°
2026-05-08 18:33 37.10034 -82.90820 26065 ft 225 kts 304°
2026-05-08 18:34 37.11400 -82.91929 26068 ft 252 kts 323°
2026-05-08 18:34 37.13138 -82.92581 26063 ft 263 kts 330°
2026-05-08 18:34 37.14889 -82.93252 26057 ft 262 kts 326°
2026-05-08 18:34 37.16559 -82.94127 26051 ft 257 kts 320°
2026-05-08 18:35 37.18064 -82.95244 26056 ft 250 kts 313°
2026-05-08 18:35 37.19398 -82.96616 26056 ft 247 kts 307°
2026-05-08 18:35 37.20689 -82.98070 26056 ft 249 kts 308°
2026-05-08 18:35 37.22012 -82.99460 26035 ft 251 kts 310°
2026-05-08 18:36 37.23407 -83.00744 26059 ft 245 kts 310°
2026-05-08 18:36 37.24683 -83.02157 26059 ft 244 kts 306°
2026-05-08 18:36 37.25954 -83.03550 26059 ft 249 kts 310°
2026-05-08 18:36 37.27311 -83.04860 26097 ft 251 kts 311°
2026-05-08 18:37 37.28700 -83.06228 26068 ft 252 kts 310°
2026-05-08 18:37 37.30060 -83.07592 26030 ft 251 kts 309°
2026-05-08 18:37 37.31368 -83.09007 26071 ft 248 kts 310°
2026-05-08 18:37 37.32779 -83.10318 26070 ft 253 kts 313°
2026-05-08 18:38 37.34180 -83.11640 26068 ft 251 kts 310°
2026-05-08 18:38 37.35543 -83.13014 26074 ft 252 kts 310°
2026-05-08 18:38 37.36913 -83.14387 26070 ft 254 kts 310°
2026-05-08 18:38 37.38317 -83.15770 26071 ft 256 kts 311°
2026-05-08 18:39 37.39721 -83.17150 26070 ft 256 kts 311°
2026-05-08 18:39 37.41119 -83.18541 26069 ft 255 kts 310°
2026-05-08 18:39 37.42499 -83.19920 26073 ft 256 kts 310°
2026-05-08 18:39 37.43901 -83.21313 26072 ft 256 kts 311°
2026-05-08 18:40 37.45301 -83.22702 26073 ft 256 kts 310°
2026-05-08 18:40 37.46702 -83.24097 26068 ft 256 kts 310°
2026-05-08 18:40 37.48085 -83.25474 26068 ft 256 kts 310°
2026-05-08 18:40 37.49488 -83.26869 26070 ft 255 kts 310°
2026-05-08 18:41 37.50882 -83.28259 26073 ft 255 kts 310°
2026-05-08 18:41 37.52262 -83.29636 26071 ft 255 kts 310°
2026-05-08 18:41 37.53656 -83.31028 26068 ft 257 kts 311°
2026-05-08 18:41 37.55063 -83.32432 26070 ft 257 kts 311°
2026-05-08 18:42 37.56467 -83.33831 26072 ft 258 kts 311°
2026-05-08 18:42 37.57881 -83.35244 26072 ft 258 kts 311°
2026-05-08 18:42 37.59276 -83.36638 26071 ft 259 kts 311°
2026-05-08 18:42 37.60695 -83.38058 26082 ft 259 kts 311°
2026-05-08 18:43 37.62111 -83.39480 26061 ft 259 kts 311°
2026-05-08 18:43 37.63509 -83.40872 26059 ft 258 kts 311°
2026-05-08 18:43 37.64921 -83.42283 26057 ft 257 kts 311°
2026-05-08 18:43 37.66304 -83.43673 26055 ft 256 kts 311°
2026-05-08 18:44 37.67693 -83.45077 26041 ft 257 kts 311°
2026-05-08 18:44 37.69104 -83.46485 26043 ft 258 kts 311°
2026-05-08 18:44 37.70499 -83.47878 26041 ft 257 kts 311°
2026-05-08 18:44 37.71899 -83.49282 26040 ft 257 kts 311°
2026-05-08 18:45 37.73298 -83.50688 26037 ft 256 kts 311°
2026-05-08 18:45 37.74696 -83.52093 26034 ft 256 kts 311°
2026-05-08 18:45 37.76091 -83.53496 26031 ft 256 kts 311°
2026-05-08 18:45 37.77488 -83.54903 26034 ft 258 kts 310°
2026-05-08 18:46 37.78880 -83.56307 26047 ft 260 kts 311°
2026-05-08 18:46 37.80305 -83.57739 26049 ft 260 kts 311°
2026-05-08 18:46 37.81721 -83.59163 26050 ft 258 kts 311°
2026-05-08 18:46 37.83122 -83.60574 26043 ft 256 kts 311°
2026-05-08 18:47 37.84517 -83.61986 26040 ft 256 kts 310°
2026-05-08 18:47 37.85891 -83.63387 26040 ft 258 kts 311°
2026-05-08 18:47 37.87311 -83.64808 26040 ft 260 kts 311°
2026-05-08 18:47 37.88734 -83.66237 26040 ft 261 kts 311°
2026-05-08 18:48 37.90141 -83.67658 26041 ft 260 kts 311°
2026-05-08 18:48 37.91560 -83.69093 26043 ft 259 kts 311°
2026-05-08 18:48 37.92970 -83.70520 26036 ft 258 kts 310°
2026-05-08 18:48 37.94360 -83.71928 26037 ft 257 kts 311°
2026-05-08 18:49 37.95760 -83.73346 26037 ft 258 kts 311°
2026-05-08 18:49 37.97169 -83.74774 26038 ft 258 kts 310°
2026-05-08 18:49 37.98574 -83.76198 26041 ft 259 kts 311°
2026-05-08 18:49 37.99961 -83.77605 26040 ft 259 kts 311°
2026-05-08 18:50 38.01375 -83.79039 26039 ft 259 kts 311°
2026-05-08 18:50 38.02782 -83.80468 26040 ft 258 kts 311°
2026-05-08 18:50 38.04180 -83.81888 26040 ft 259 kts 311°
2026-05-08 18:50 38.05569 -83.83296 26041 ft 258 kts 311°
2026-05-08 18:51 38.06982 -83.84735 26043 ft 258 kts 311°
2026-05-08 18:51 38.08389 -83.86166 26043 ft 257 kts 311°
2026-05-08 18:51 38.09774 -83.87575 26044 ft 257 kts 311°
2026-05-08 18:51 38.11168 -83.88992 26043 ft 257 kts 311°
2026-05-08 18:52 38.12566 -83.90417 26042 ft 257 kts 310°
2026-05-08 18:52 38.13965 -83.91844 26043 ft 258 kts 310°
2026-05-08 18:52 38.15372 -83.93280 26042 ft 259 kts 311°
2026-05-08 18:52 38.16767 -83.94704 26043 ft 260 kts 311°
2026-05-08 18:53 38.18183 -83.96148 26044 ft 261 kts 311°
2026-05-08 18:53 38.19606 -83.97601 26042 ft 262 kts 311°
2026-05-08 18:53 38.21022 -83.99046 26041 ft 260 kts 311°
2026-05-08 18:53 38.22432 -84.00487 26039 ft 259 kts 310°
2026-05-08 18:54 38.23817 -84.01906 26036 ft 257 kts 310°
2026-05-08 18:54 38.25219 -84.03342 26033 ft 258 kts 310°
2026-05-08 18:54 38.26596 -84.04751 26033 ft 259 kts 310°
2026-05-08 18:54 38.28013 -84.06203 26033 ft 260 kts 310°
2026-05-08 18:55 38.30839 -84.09098 26034 ft 262 kts 311°
2026-05-08 18:55 38.32256 -84.10549 26033 ft 260 kts 311°
2026-05-08 18:55 38.33652 -84.11982 26028 ft 259 kts 310°
2026-05-08 18:56 38.35117 -84.13337 26023 ft 264 kts 317°
2026-05-08 18:56 38.36768 -84.14436 26020 ft 272 kts 324°
2026-05-08 18:56 38.38593 -84.15244 26017 ft 283 kts 332°
2026-05-08 18:56 38.40566 -84.15705 26015 ft 294 kts 341°
2026-05-08 18:57 38.42627 -84.15766 26013 ft 306 kts 350°
2026-05-08 18:57 38.44086 -84.15552 26012 ft 315 kts 356°
2026-05-08 18:57 38.46942 -84.14473 26007 ft 331 kts 11°
2026-05-08 18:57 38.49044 -84.13234 26008 ft 332 kts 13°
2026-05-08 18:58 38.51140 -84.12014 26036 ft 330 kts 12°
2026-05-08 18:58 38.53214 -84.10830 25999 ft 330 kts 12°
2026-05-08 18:58 38.55337 -84.09609 25673 ft 336 kts 13°
2026-05-08 18:58 38.57458 -84.08364 25248 ft 332 kts 13°
2026-05-08 18:59 38.59547 -84.07138 24807 ft 327 kts 13°
2026-05-08 18:59 38.61591 -84.05960 24378 ft 325 kts 13°
2026-05-08 18:59 38.63666 -84.04766 23951 ft 328 kts 14°
2026-05-08 18:59 38.65763 -84.03544 23498 ft 330 kts 14°
2026-05-08 19:00 38.67155 -84.02728 23169 ft 329 kts 14°
2026-05-08 19:00 38.69915 -84.01116 22588 ft 326 kts 14°
2026-05-08 19:00 38.71966 -83.99926 22159 ft 327 kts 14°
2026-05-08 19:00 38.74055 -83.98712 21746 ft 328 kts 14°
2026-05-08 19:01 38.76138 -83.97493 21290 ft 329 kts 15°
2026-05-08 19:01 38.78204 -83.96285 20855 ft 328 kts 15°
2026-05-08 19:01 38.80292 -83.95064 20413 ft 327 kts 15°
2026-05-08 19:01 38.82359 -83.93856 19978 ft 325 kts 15°
2026-05-08 19:02 38.84389 -83.92672 19556 ft 324 kts 15°
2026-05-08 19:02 38.86454 -83.91474 19128 ft 325 kts 15°
2026-05-08 19:02 38.88522 -83.90262 18695 ft 326 kts 15°
2026-05-08 19:02 38.90582 -83.89049 18258 ft 326 kts 15°
2026-05-08 19:03 38.92638 -83.87843 17798 ft 323 kts 15°
2026-05-08 19:03 38.94674 -83.86648 17412 ft 319 kts 15°
2026-05-08 19:03 38.96673 -83.85475 17017 ft 318 kts 15°
2026-05-08 19:03 38.98690 -83.84291 16578 ft 316 kts 15°
2026-05-08 19:04 39.00671 -83.83123 16161 ft 312 kts 16°
2026-05-08 19:04 39.02641 -83.81965 15748 ft 308 kts 16°
2026-05-08 19:04 39.04564 -83.80836 15346 ft 306 kts 16°
2026-05-08 19:04 39.06500 -83.79695 14940 ft 303 kts 17°
2026-05-08 19:05 39.08413 -83.78567 14541 ft 301 kts 17°
2026-05-08 19:05 39.10315 -83.77444 14143 ft 300 kts 17°
2026-05-08 19:05 39.11568 -83.76706 13881 ft 298 kts 17°
2026-05-08 19:05 39.14053 -83.75238 13332 ft 293 kts 17°
2026-05-08 19:06 39.15910 -83.74141 12942 ft 294 kts 18°
2026-05-08 19:06 39.17149 -83.73411 12684 ft 295 kts 18°
2026-05-08 19:06 39.18970 -83.72332 12318 ft 293 kts 18°
2026-05-08 19:06 39.20175 -83.71617 12055 ft 292 kts 18°
2026-05-08 19:07 39.22023 -83.70519 11666 ft 290 kts 19°
2026-05-08 19:07 39.23856 -83.69435 11279 ft 289 kts 19°
2026-05-08 19:07 39.25685 -83.68354 10897 ft 289 kts 19°
2026-05-08 19:07 39.27519 -83.67264 10517 ft 289 kts 20°
2026-05-08 19:08 39.29319 -83.66196 10145 ft 287 kts 20°
2026-05-08 19:08 39.31127 -83.65123 9752 ft 285 kts 20°
2026-05-08 19:08 39.32926 -83.64056 9360 ft 284 kts 20°
2026-05-08 19:08 39.34722 -83.62989 8986 ft 284 kts 20°
2026-05-08 19:09 39.36526 -83.61914 8607 ft 284 kts 21°
2026-05-08 19:09 39.38326 -83.60844 8208 ft 283 kts 21°
2026-05-08 19:09 39.40116 -83.59778 7830 ft 282 kts 21°
2026-05-08 19:09 39.41899 -83.58717 7468 ft 282 kts 20°
2026-05-08 19:10 39.43659 -83.57667 7099 ft 282 kts 21°
2026-05-08 19:10 39.45450 -83.56598 6726 ft 282 kts 21°
2026-05-08 19:10 39.47292 -83.55793 6347 ft 276 kts
2026-05-08 19:10 39.49199 -83.55750 5967 ft 269 kts 348°
2026-05-08 19:11 39.50905 -83.56356 5622 ft 246 kts 332°
2026-05-08 19:11 39.52299 -83.57412 5341 ft 219 kts 317°
2026-05-08 19:11 39.53349 -83.58724 5111 ft 203 kts 304°
2026-05-08 19:11 39.54196 -83.60179 4885 ft 205 kts 302°
2026-05-08 19:12 39.54986 -83.61724 4611 ft 205 kts 291°
2026-05-08 19:12 39.55383 -83.63460 4341 ft 198 kts 276°
2026-05-08 19:12 39.55403 -83.65212 4082 ft 192 kts 261°
2026-05-08 19:12 39.55072 -83.66866 3873 ft 193 kts 247°
2026-05-08 19:13 39.54408 -83.68369 3620 ft 193 kts 233°
2026-05-08 19:13 39.53497 -83.69543 3384 ft 176 kts 220°
2026-05-08 19:13 39.52574 -83.70392 3156 ft 151 kts 220°
2026-05-08 19:13 39.51813 -83.71172 2968 ft 129 kts 221°
2026-05-08 19:14 39.51105 -83.71883 2798 ft 133 kts 221°
2026-05-08 19:14 39.50359 -83.72626 2619 ft 136 kts 220°
2026-05-08 19:14 39.49593 -83.73381 2433 ft 139 kts 220°
2026-05-08 19:14 39.48823 -83.74138 2241 ft 138 kts 220°
2026-05-08 19:15 39.48079 -83.74873 2060 ft 134 kts 220°
2026-05-08 19:15 39.47349 -83.75590 1874 ft 133 kts 220°
2026-05-08 19:15 39.46648 -83.76286 1696 ft 115 kts 221°
2026-05-08 19:15 39.46003 -83.76925 1534 ft 122 kts 220°
2026-05-08 19:16 39.45308 -83.77583 1368 ft 121 kts 218°
2026-05-08 19:16 39.44611 -83.78209 1217 ft 121 kts 217°
2026-05-08 19:16 39.44037 -83.78857 1081 ft 99 kts 221°
2026-05-08 19:16 39.43575 -83.79324 1063 ft 67 kts 223°
2026-05-08 19:17 39.43326 -83.79570 1059 ft 32 kts 214°
2026-05-08 19:17 39.43204 -83.79588 1057 ft 15 kts 134°
2026-05-08 19:17 39.43153 -83.79503 1059 ft 9 kts 125°
2026-05-08 19:17 39.43127 -83.79443 1059 ft 7 kts 88°
2026-05-08 19:18 39.43146 -83.79381 1059 ft 8 kts 73°
2026-05-08 19:18 39.43126 -83.79309 1060 ft 10 kts 126°
2026-05-08 19:18 39.43085 -83.79239 1060 ft 0 kts 127°